Find Starlink 37305

NORAD ID: 68713 Int'l Des: 2026-081 Owner: SPXS Country: US Constellation: starlink operational
LEOCIRCULAR

Aktuelle Ansicht

3D-Globus wird geladen...

Über Starlink 37305

Beschreibung wird geladen...

Nächste Überflüge

Passes for default location (London). Set your location on the main map for personalized predictions.

Höhenverlauf

Loading altitude history...

Zweizeiliger Elementsatz

1 68713U 26081Q 26151.04559078 .00024870 00000-0 74505-3 0 9990
2 68713 53.1592 11.4282 0000909 86.6702 273.4404 15.34387427 7350
Epoch: 31. Mai 2026 • Age: 15 hours

Aktueller Status

Höhe 463.2 km
Geschwindigkeit 7.64 km/s
Subsatellitenpunkt 23.98°N, 42.86°E
Startdatum 14. Apr. 2026
Alter 0.1 years
Typ internet

Technische Details

Klassifizierung Payload
Masse 575.00 kg
Trockenmasse 530.00 kg
Gesamtmasse 575.00 kg
Länge 0.30 m
Durchmesser 4.10 m
Spannweite 29.00 m
Form Box + pan
Hersteller SPXS
Bus-Typ Starlink V2MO
Phasenstatus In Orbit
Besitzer/Staat SPXS/US

Most Searched